Location: Atherton
(17.2661°S, 145.4859°E)
Time: 04:21:28
(UTC+10:00)

Hubble Space Telescope - Pass Details

Date: 13 February 2026
Orbit: 476 x 479 km, 28.5° (Epoch: 6 March)

Event Time Altitude Azimuth Distance (km) Brightness Sun altitude
Rises 20:42:43 0° 259° (W) 2,519 5.4 -25.6°
Reaches altitude 10° 20:45:19 10° 242° (WSW) 1,643 4.3 -26.2°
Maximum altitude 20:48:12 20° 192° (SSW) 1,139 2.8 -26.8°
Enters shadow 20:48:18 20° 190° (S) 1,140 2.7 -26.9°
